User: anonymous   Login
Location: Langangen
(59.1000°N, 9.8000°E)
Time: 02:37:05
(UTC+01:00)
Language:

Iridium 60 - Orbit

View from above orbital plane
View from above orbital plane
View from above satellite
View from above satellite

Ground track
Ground track

The orbit data is extracted from the following two-line orbital elements,

1 25276U 98019E   14328.44712956  .00000272  00000-0  89978-4 0   576
2 25276 086.3944 318.1564 0002219 105.8051 254.3390 14.34214160871941
Epoch (UTC): 24 November 2014 10:43:51
Eccentricity: 0.0002219
inclination: 86.3944°
perigee height: 776 km
apogee height: 779 km
right ascension of ascending node: 318.1564°
argument of perigee: 105.8051°
revolutions per day: 14.34214160
mean anomaly at epoch: 254.3390°
orbit number at epoch: 87194

The dashed part of the orbit path shows where the satellite is in the earth's shadow,  

DLR